This is the latest recevied weather packets stored in our database for station/object K8FJG-13. If no packets are shown the sender has not sent any weather packets the latest 10 day(s).
| Time | Temp. | Humidity | Pressure | Rain* | Wind** | Luminosity | Snow |
|---|---|---|---|---|---|---|---|
| 1777693919 | 3.89° C | 94% | 970.9 hPa | - | - | - | - |
| 1777693317 | 3.33° C | 94% | 970.9 hPa | - | - | - | - |
| 1777692713 | 3.33° C | 93% | 970.8 hPa | - | - | - | - |
| 1777692110 | 3.33° C | 93% | 970.8 hPa | - | - | - | - |
| 1777691507 | 3.33° C | 93% | 970.7 hPa | - | - | - | - |
| 1777690904 | 3.33° C | 93% | 970.7 hPa | - | - | - | - |
| 1777690301 | 3.33° C | 93% | 970.7 hPa | - | - | - | - |
| 1777689697 | 3.33° C | 93% | 970.7 hPa | - | - | - | - |
| 1777689094 | 3.33° C | 93% | 970.8 hPa | - | - | - | - |
| 1777688491 | 3.33° C | 93% | 970.8 hPa | - | - | - | - |
| 1777687888 | 2.78° C | 93% | 970.8 hPa | - | - | - | - |
| 1777687285 | 2.78° C | 93% | 970.7 hPa | - | - | - | - |
| 1777686682 | 2.78° C | 93% | 970.7 hPa | - | - | - | - |
| 1777686079 | 2.78° C | 93% | 970.5 hPa | - | - | - | - |
| 1777685475 | 2.22° C | 92% | 970.5 hPa | - | - | - | - |
| 1777684872 | 2.22° C | 92% | 970.4 hPa | - | - | - | - |
| 1777684269 | 2.78° C | 91% | 970.4 hPa | - | - | - | - |
| 1777683666 | 2.78° C | 90% | 970.3 hPa | - | - | - | - |
| 1777683063 | 3.33° C | 89% | 970.1 hPa | - | - | - | - |
| 1777682460 | 3.33° C | 87% | 970 hPa | - | - | - | - |
| 1777681857 | 3.89° C | 85% | 969.7 hPa | - | - | - | - |
| 1777681254 | 3.89° C | 84% | 969.6 hPa | - | - | - | - |
| 1777680650 | 4.44° C | 83% | 969.6 hPa | - | - | - | - |
| 1777680047 | 5° C | 81% | 969.6 hPa | - | - | - | - |
| 1777679444 | 5° C | 82% | 969.5 hPa | - | - | - | - |
* Rain since midnight (hover to see other rain measurements)
** Current wind speed in m/s (hover to see current wind gust speed)